#datint,netname,site,siteid,timestamp,airt,airt_max,airt_min,airt_avg,precip_tb,soilm2,soilm4,soilm8,soilm20,soilm40,soil1t2,soil1t4,soil1t8,soil1t20,soil1t40,windd_avg,winds_max,winds_avg,rh,solarw_avg,solarmj,Td_avg,ea_avg,rh_min,rh_max,esat_avg,eto,etr
hour,USCAN,bluecreek,2135,05OCT2019:00:00:00,2.8,2.8,0.6,1.2,0,29.6,31.1,37.5,19.2,19,8.1,8.9,10.8,12.5,14.8,47,3.531616,1.475232,71,0.09,0.000324,-1.7,0.54,71,85,0.66,.,.
hour,USCAN,bluecreek,2135,05OCT2019:01:00:00,1.7,2.8,1,2,0,29.2,31.1,37.5,19.2,19,7.7,8.5,10.7,12.5,14.7,48,3.263392,2.145792,77,0.07,0.000252,-1.9,0.53,71,81,0.7,.,.
hour,USCAN,bluecreek,2135,05OCT2019:02:00:00,-0.4,1.7,-0.6,0.6,0,29.3,30.7,37.5,18.9,19,7.5,8.3,10.6,12.5,14.7,76,3.12928,2.190496,89,0.09,0.000324,-2.1,0.52,77,89,0.64,.,.
hour,USCAN,bluecreek,2135,05OCT2019:03:00:00,1.2,1.7,-0.4,0.9,0,29.4,30.8,37.2,19.7,19,7.2,8.1,10.6,12.5,14.7,55,3.3528,2.369312,80,0.09,0.000324,-1.8,0.54,78,89,0.65,.,.
hour,USCAN,bluecreek,2135,05OCT2019:04:00:00,-0.1,1.2,-0.1,0.6,0,29.3,30.7,37.6,19.7,19,7,7.8,10.4,12.5,14.7,70,2.861056,2.145792,85,0.08,0.000288,-2,0.53,80,85,0.64,.,.
hour,USCAN,bluecreek,2135,05OCT2019:05:00:00,-0.2,0.6,-0.2,0.1,0,29.4,30.9,37.3,19.7,18.6,6.8,7.6,10.3,12.5,14.7,80,3.039872,2.101088,85,0.07,0.000252,-2.3,0.52,81,85,0.62,.,.
hour,USCAN,bluecreek,2135,05OCT2019:06:00:00,-0.8,-0.1,-0.8,-0.4,0,29,30.5,37.3,19.7,18.6,6.6,7.5,10.2,12.5,14.7,77,2.90576,1.966976,86,0.08,0.000288,-2.5,0.51,85,87,0.6,.,.
hour,USCAN,bluecreek,2135,05OCT2019:07:00:00,-0.4,-0.4,-1.7,-1.1,0,29.2,30.6,37.4,19.4,19,6.4,7.3,10.1,12.4,14.7,76,2.861056,1.922272,84,9.22,0.033192,-3.1,0.49,84,89,0.56,.,.
hour,USCAN,bluecreek,2135,05OCT2019:08:00:00,2.5,2.7,-0.4,1,0,29.1,30.6,37,19.2,18.6,6.3,7.2,10,12.4,14.7,89,2.503424,1.072896,80,144.8,0.52128,-2,0.53,74,84,0.66,.,.
hour,USCAN,bluecreek,2135,05OCT2019:09:00:00,5.1,5.3,2.5,3.9,0,29.4,30.6,37.3,19.4,18.6,6.4,7.2,9.9,12.4,14.7,167,2.01168,0.134112,67,314,1.1304,-0.8,0.58,67,80,0.81,.,.
hour,USCAN,bluecreek,2135,05OCT2019:10:00:00,7.1,7.1,5.1,5.6,0,29.4,30.6,37.3,19.4,18.2,6.9,7.3,9.8,12.4,14.7,218,3.173984,1.654048,51,497.5,1.791,-0.7,0.58,51,69,0.91,.,.
hour,USCAN,bluecreek,2135,05OCT2019:11:00:00,8.3,8.3,7.1,7.6,0,29.1,30.7,36.9,19.4,18.6,7.7,7.8,9.7,12.4,14.7,188,4.738624,1.966976,46,618.4,2.22624,-2,0.53,46,56,1.04,.,.
hour,USCAN,bluecreek,2135,05OCT2019:12:00:00,9.3,9.3,8.3,8.5,0,29.5,30.6,36.9,19.4,18.6,8.7,8.6,9.7,12.3,14.7,182,5.096256,2.816352,49,676.2,2.43432,-2,0.53,46,50,1.11,.,.
hour,USCAN,bluecreek,2135,05OCT2019:13:00:00,9.4,9.5,9.3,9.4,0,29.6,30.8,36.9,19.4,18.6,9.7,9.5,9.7,12.3,14.7,188,6.079744,2.637536,51,688.2,2.47752,-0.3,0.6,49,53,1.18,.,.
hour,USCAN,bluecreek,2135,05OCT2019:14:00:00,9.1,9.4,9.1,9.3,0,29.9,30.6,36.9,19.4,18.6,10.7,10.2,9.8,12.2,14.7,226,7.420864,3.933952,52,558.1,2.00916,0.7,0.64,51,57,1.17,.,.
hour,USCAN,bluecreek,2135,05OCT2019:15:00:00,9.4,9.6,9.1,9.4,0,29.9,30.6,36.9,19.7,18.6,11.6,11,9.9,12.2,14.6,243,6.303264,3.755136,44,384.8,1.38528,-0.2,0.6,44,56,1.18,.,.
hour,USCAN,bluecreek,2135,05OCT2019:16:00:00,10.6,10.6,9.4,9.8,0,29.9,30.5,37.3,19.7,18.1,11.6,11.3,10,12.2,14.6,244,5.632704,3.710432,38,376.3,1.35468,-3.3,0.48,35,44,1.21,.,.
hour,USCAN,bluecreek,2135,05OCT2019:17:00:00,9.7,10.6,9.7,10.4,0,29.6,31,37.3,19.7,18.6,11.6,11.5,10.2,12.2,14.6,240,5.096256,3.218688,42,234.5,0.8442,-3,0.49,37,44,1.26,.,.
hour,USCAN,bluecreek,2135,05OCT2019:18:00:00,7.9,9.7,7.9,9,0,29.8,31,37.7,19.7,18.6,11.2,11.3,10.4,12.1,14.6,259,4.24688,2.324608,57,38.26,0.137736,-1.3,0.56,42,57,1.14,.,.
hour,USCAN,bluecreek,2135,05OCT2019:19:00:00,4.9,7.9,4.9,6.6,0,29.7,30.6,37.3,19.7,18.6,10.8,11.1,10.6,12.1,14.6,18,2.950464,1.296416,67,1.24,0.004464,-0.1,0.61,57,67,0.98,.,.
hour,USCAN,bluecreek,2135,05OCT2019:20:00:00,6.5,6.5,4.8,5.6,0,29.6,30.9,37.3,19.7,18.6,10.3,10.7,10.7,12.1,14.6,24,3.442208,1.922272,58,0.18,0.000648,-0.1,0.6,58,71,0.91,.,.
hour,USCAN,bluecreek,2135,05OCT2019:21:00:00,5.9,6.5,5.9,6.2,0,29.3,30.4,37.3,19.7,18.6,9.8,10.3,10.8,12.1,14.6,356,4.02336,2.190496,57,0.18,0.000648,-1.7,0.54,56,58,0.94,.,.
hour,USCAN,bluecreek,2135,05OCT2019:22:00:00,5.2,7,5.2,6.3,0,29.7,30.5,37,19.7,18.6,9.3,9.9,10.8,12.1,14.6,340,7.15264,3.621024,58,0.17,0.000612,-2.5,0.51,49,59,0.95,.,.
hour,USCAN,bluecreek,2135,05OCT2019:23:00:00,3.9,5.6,3.9,5.3,0,29.3,30.6,37.3,19.7,18.6,8.9,9.6,10.8,12.1,14.6,7,4.291584,2.548128,66,0.19,0.000684,-2.5,0.51,56,66,0.89,.,.
hour,USCAN,bluecreek,2135,06OCT2019:00:00:00,2.5,4.5,2.5,3.5,0,29.4,30.7,37,19.7,18.6,8.5,9.2,10.8,12.1,14.6,58,4.783328,2.2352,69,0.16,0.000576,-2.3,0.52,60,69,0.79,.,.
hour,USCAN,bluecreek,2135,06OCT2019:01:00:00,3.4,3.4,0.8,1.7,0,29.4,30.4,37.3,19.7,18.6,8.2,9,10.7,12.1,14.5,62,3.710432,1.654048,65,0.09,0.000324,-2.7,0.5,65,77,0.69,.,.
hour,USCAN,bluecreek,2135,06OCT2019:02:00:00,0.6,3.4,0.4,1.2,0,29,30.5,37,19.7,18.6,7.9,8.6,10.6,12.1,14.6,72,3.57632,2.2352,78,0.12,0.000432,-2.8,0.5,65,78,0.67,.,.
hour,USCAN,bluecreek,2135,06OCT2019:03:00:00,-0.3,0.6,-0.3,0.1,0,28.9,30.5,37.3,19.7,18.6,7.6,8.4,10.5,12.1,14.5,76,2.995168,2.2352,82,0.08,0.000288,-2.9,0.5,78,83,0.62,.,.
hour,USCAN,bluecreek,2135,06OCT2019:04:00:00,2.1,2.2,-0.6,0.5,0,28.8,30.1,37.3,19.7,18.6,7.3,8.1,10.4,12.1,14.5,54,3.173984,2.279904,71,0.06,0.000216,-2.8,0.5,71,83,0.63,.,.
hour,USCAN,bluecreek,2135,06OCT2019:05:00:00,2.5,2.5,2,2.2,0,28.9,30.2,36.9,19.7,18.6,7,7.8,10.3,12.1,14.5,41,3.173984,2.548128,68,0.07,0.000252,-2.8,0.5,68,71,0.72,.,.
hour,USCAN,bluecreek,2135,06OCT2019:06:00:00,-0.4,2.5,-0.4,1.4,0,28.8,30.3,36.9,19.7,18.6,6.8,7.7,10.2,12.1,14.5,56,3.397504,2.190496,80,0.07,0.000252,-3.1,0.49,68,80,0.68,.,.
hour,USCAN,bluecreek,2135,06OCT2019:07:00:00,-0.7,0.4,-1.2,-0.6,0,28.9,29.9,37,19.7,18.6,6.6,7.5,10.1,12.1,14.4,76,2.861056,1.832864,82,7.17,0.025812,-3.6,0.47,75,83,0.59,.,.
hour,USCAN,bluecreek,2135,06OCT2019:08:00:00,3.9,4,-0.7,1.7,0,28.6,30,37,19.7,18.6,6.5,7.3,10,12.1,14.4,57,2.324608,1.207008,66,146.6,0.52776,-2.5,0.51,66,82,0.7,.,.
hour,USCAN,bluecreek,2135,06OCT2019:09:00:00,6.9,6.9,3.9,5,0,28.5,30,37.2,19.7,18.6,6.6,7.3,9.8,12.1,14.4,226,2.01168,0.491744,52,333.7,1.20132,-2,0.53,52,66,0.88,.,.
hour,USCAN,bluecreek,2135,06OCT2019:10:00:00,8.8,8.8,6.9,7.2,0,28.9,30.3,36.8,19.7,18.4,7.1,7.5,9.8,12.1,14.4,236,2.592832,0.804672,55,500.4,1.80144,-1.9,0.53,50,55,1.02,.,.
hour,USCAN,bluecreek,2135,06OCT2019:11:00:00,10.1,10.1,8.8,9.4,0,28.8,30.6,36.9,19.7,18.4,7.8,8,9.7,12.1,14.4,225,3.173984,1.296416,35,623.8,2.24568,-1.6,0.55,35,55,1.18,.,.
hour,USCAN,bluecreek,2135,06OCT2019:12:00:00,11.7,11.7,9.7,10.2,0,29.1,30.1,37,19.7,18.8,8.7,8.6,9.6,12,14.4,242,4.202176,1.654048,34,698.3,2.51388,-5.2,0.42,30,37,1.24,.,.
hour,USCAN,bluecreek,2135,06OCT2019:13:00:00,11.7,11.7,11.1,11.4,0,29.1,30.3,37,19.2,18.6,9.6,9.5,9.6,12,14.4,228,3.79984,1.56464,32,712.5,2.565,-3.7,0.46,31,37,1.35,.,.
hour,USCAN,bluecreek,2135,06OCT2019:14:00:00,12.6,12.6,11.7,12.2,0,29.1,30.5,37,19.7,18.8,10.7,10.2,9.7,12,14.4,223,4.02336,1.028192,35,670.1,2.41236,-4.6,0.44,29,35,1.42,.,.
hour,USCAN,bluecreek,2135,06OCT2019:15:00:00,13,13.1,12.6,12.8,0,29.6,30.3,36.9,19.2,18.8,11.6,11,9.8,12,14.4,190,4.112768,1.877568,32,572.2,2.05992,-3.2,0.48,30,35,1.48,.,.
hour,USCAN,bluecreek,2135,06OCT2019:16:00:00,13,13.2,13,13.1,0,29.2,30.8,36.9,19.2,18.4,11.9,11.5,10,12,14.4,214,4.738624,1.519936,29,430.8,1.55088,-4,0.45,29,32,1.5,.,.
hour,USCAN,bluecreek,2135,06OCT2019:17:00:00,12.4,13.7,12.4,13.2,0,29.5,30.7,36.8,19.2,18.6,11.7,11.6,10.2,12,14.4,233,3.665728,1.251712,31,258.1,0.92916,-3.9,0.46,29,32,1.52,.,.
hour,USCAN,bluecreek,2135,06OCT2019:18:00:00,7.8,12.4,7.8,12.1,0,29.5,30.8,36.6,19.2,18.6,11.3,11.5,10.4,11.9,14.3,259,2.592832,1.207008,57,75.38,0.271368,-2.7,0.5,31,57,1.41,.,.
hour,USCAN,bluecreek,2135,06OCT2019:19:00:00,4,7.8,4,5.3,0,29,30.3,37,19.2,18.6,10.7,11.1,10.5,11.9,14.3,70,3.12928,2.45872,68,1.45,0.00522,-1.1,0.56,57,68,0.89,.,.
hour,USCAN,bluecreek,2135,06OCT2019:20:00:00,3.8,4,3.6,3.9,0,28.7,30.5,37,19.2,18.4,10.1,10.7,10.6,11.9,14.3,75,2.950464,2.101088,71,0.18,0.000648,-0.8,0.58,68,74,0.81,.,.
hour,USCAN,bluecreek,2135,06OCT2019:21:00:00,3.6,3.8,2.8,3.2,0,28.8,30.2,37,19.2,18.4,9.5,10.2,10.7,11.9,14.3,76,3.084576,2.190496,72,0.15,0.00054,-1,0.57,71,76,0.77,.,.
hour,USCAN,bluecreek,2135,06OCT2019:22:00:00,2.5,3.6,2.5,3.1,0,28.8,30.3,36.9,19.2,18.8,9,9.8,10.7,11.9,14.3,74,3.084576,2.279904,77,0.13,0.000468,-1.1,0.56,72,77,0.76,.,.
hour,USCAN,bluecreek,2135,06OCT2019:23:00:00,1.8,2.5,1.8,2.1,0,28.7,30.4,37,19.2,18.4,8.6,9.3,10.7,11.9,14.3,72,3.3528,2.592832,80,0.11,0.000396,-1.3,0.56,77,80,0.71,.,.
hour,USCAN,bluecreek,2135,07OCT2019:00:00:00,1.7,1.9,1.4,1.6,0,28.5,30,37,19.2,17.8,8.3,9,10.6,11.9,14.3,75,3.3528,2.45872,78,0.1,0.00036,-1.4,0.55,78,81,0.69,.,.
hour,USCAN,bluecreek,2135,07OCT2019:01:00:00,0.6,1.7,0.6,1.2,0,28.6,30.1,36.6,19.2,18.4,7.9,8.6,10.6,11.9,14.3,73,3.263392,2.548128,78,0.1,0.00036,-2.4,0.51,75,78,0.66,.,.
hour,USCAN,bluecreek,2135,07OCT2019:02:00:00,0.8,0.9,0.2,0.6,0,28.7,30.2,36.8,19.2,18.8,7.6,8.4,10.4,11.9,14.3,73,3.218688,2.548128,79,0.09,0.000324,-2.8,0.5,78,79,0.64,.,.
hour,USCAN,bluecreek,2135,07OCT2019:03:00:00,0.6,0.8,0.1,0.4,0,28.5,29.9,36.6,19.2,18.5,7.3,8.1,10.3,11.9,14.3,74,3.12928,2.45872,79,0.07,0.000252,-2.6,0.5,79,82,0.63,.,.
hour,USCAN,bluecreek,2135,07OCT2019:04:00:00,-0.2,0.6,-0.2,0.4,0,28.3,30,36.9,19.2,18.4,7.1,7.8,10.2,11.9,14.3,71,2.995168,2.592832,82,0.09,0.000324,-2.6,0.5,79,82,0.63,.,.
hour,USCAN,bluecreek,2135,07OCT2019:05:00:00,-0.9,-0.2,-1,-0.5,0,28.5,30,36.9,19.2,18.8,6.8,7.6,10.1,11.9,14.3,73,3.039872,2.592832,81,0.1,0.00036,-3.1,0.49,81,83,0.59,.,.
hour,USCAN,bluecreek,2135,07OCT2019:06:00:00,-1.4,-0.9,-1.4,-1,0,28.3,29.6,36.5,19.7,18.4,6.6,7.4,10,11.9,14.3,71,3.263392,2.592832,83,0.09,0.000324,-3.9,0.46,80,83,0.57,.,.
hour,USCAN,bluecreek,2135,07OCT2019:07:00:00,-0.4,-0.4,-1.4,-1,0,28,29.7,36.4,19.2,18.4,6.4,7.2,9.9,11.9,14.3,72,3.397504,2.592832,82,5.99,0.021564,-3.6,0.47,80,84,0.57,.,.
hour,USCAN,bluecreek,2135,07OCT2019:08:00:00,5.5,5.5,-0.4,1.8,0,28.1,29.7,36.6,19.2,18.4,6.3,7,9.8,11.9,14.2,73,2.45872,1.609344,64,146.7,0.52812,-2.2,0.52,64,82,0.7,.,.
hour,USCAN,bluecreek,2135,07OCT2019:09:00:00,7.2,7.2,5.5,6.2,0,28,29.7,36.9,19.2,18.8,6.5,7.1,9.7,11.9,14.2,36,1.519936,0.402336,55,335.7,1.20852,0.1,0.61,55,67,0.95,.,.
hour,USCAN,bluecreek,2135,07OCT2019:10:00:00,8.9,8.9,7.2,7.8,0,28.1,29.7,36.9,19.2,18.4,6.9,7.3,9.6,11.9,14.2,237,2.01168,1.072896,49,500.8,1.80288,-1,0.57,49,55,1.06,.,.
hour,USCAN,bluecreek,2135,07OCT2019:11:00:00,11.2,11.2,8.9,10,0,28.2,29.7,36.6,19.2,18.4,7.8,7.7,9.4,11.9,14.2,207,4.068064,1.966976,45,623.2,2.24352,-0.7,0.58,44,50,1.23,.,.
hour,USCAN,bluecreek,2135,07OCT2019:12:00:00,12.3,12.4,11.2,11.9,0,28.6,29.5,36.6,19.2,18.4,8.7,8.5,9.4,11.9,14.2,193,4.4704,2.324608,40,692.2,2.49192,-0.9,0.57,39,45,1.4,.,.
hour,USCAN,bluecreek,2135,07OCT2019:13:00:00,13.6,13.8,12.3,13,0,28.7,30.1,36.6,19.6,18.4,9.7,9.5,9.4,11.8,14.2,194,4.380992,1.609344,37,706.9,2.54484,-0.8,0.58,37,40,1.5,.,.
hour,USCAN,bluecreek,2135,07OCT2019:14:00:00,15.1,15.1,13.6,14.3,0,28.8,30,36.6,19.7,18.4,10.9,10.2,9.5,11.8,14.1,190,4.91744,2.101088,37,664.3,2.39148,0.1,0.62,37,39,1.63,.,.
hour,USCAN,bluecreek,2135,07OCT2019:15:00:00,15.2,15.5,15.1,15.3,0,29.1,30.3,36.6,19.7,18.4,12,11.1,9.7,11.7,14.1,204,4.380992,2.2352,32,567,2.0412,0,0.61,32,37,1.74,.,.
hour,USCAN,bluecreek,2135,07OCT2019:16:00:00,15.4,15.7,15.2,15.4,0,29.1,30.2,36.5,19.7,18.4,12.2,11.7,9.9,11.7,14.1,191,4.604512,2.101088,34,424.4,1.52784,-1.1,0.56,32,34,1.75,.,.
hour,USCAN,bluecreek,2135,07OCT2019:17:00:00,14.7,15.4,14.7,15.2,0,29.1,30.1,36.5,19.3,18.4,12,11.9,10.1,11.7,14.1,183,4.112768,2.279904,35,250.7,0.90252,-0.8,0.58,33,35,1.72,.,.
hour,USCAN,bluecreek,2135,07OCT2019:18:00:00,11.2,14.7,11.2,13.8,0,28.8,30.2,36.5,19.7,18.4,11.6,11.7,10.3,11.7,14.1,172,3.084576,1.877568,46,69.66,0.250776,0.2,0.62,35,46,1.58,.,.
hour,USCAN,bluecreek,2135,07OCT2019:19:00:00,5.5,11.2,5.5,9.5,0,28.4,30.2,36.5,19.7,18.4,11,11.3,10.4,11.7,14.1,114,2.950464,1.832864,65,1.08,0.003888,-0.4,0.59,45,65,1.2,.,.
hour,USCAN,bluecreek,2135,07OCT2019:20:00:00,4.7,5.5,4.7,5.2,0,28.6,30,36.5,19.7,18.2,10.4,11,10.6,11.7,14.1,77,3.12928,2.190496,62,0.19,0.000684,-1,0.57,62,65,0.88,.,.
hour,USCAN,bluecreek,2135,07OCT2019:21:00:00,4.3,4.7,4.1,4.3,0,28.2,30.1,36.5,19.7,18.4,9.9,10.4,10.7,11.6,14.1,73,3.263392,2.503424,62,0.15,0.00054,-2.1,0.52,62,65,0.83,.,.
hour,USCAN,bluecreek,2135,07OCT2019:22:00:00,3.6,4.5,3.6,4.3,0,28.7,29.7,36.4,19.7,18.5,9.3,9.9,10.7,11.6,14.1,75,3.308096,2.592832,63,0.16,0.000576,-2.7,0.5,57,63,0.83,.,.
hour,USCAN,bluecreek,2135,07OCT2019:23:00:00,3.3,4.4,3.3,3.7,0,28,29.8,36.5,19.7,18.2,9,9.6,10.7,11.7,14.1,73,3.308096,2.637536,61,0.18,0.000648,-3.2,0.48,57,63,0.8,.,.
hour,USCAN,cachejct,2136,05OCT2019:00:00:00,2.6,2.7,1.3,1.9,0,33.1,29.8,42.3,38.6,40.4,7.5,9.8,11.5,13.4,15.2,246,2.771648,0.715264,76,0.27,0.000972,-0.8,0.58,76,84,0.7,.,.
hour,USCAN,cachejct,2136,05OCT2019:01:00:00,1.1,2.6,0.2,1.5,0.254,32.7,29.4,42.3,38.6,40.2,7.2,9.6,11.4,13.4,15.2,276,2.45872,1.028192,86,0.26,0.000936,-1.1,0.56,76,89,0.68,.,.
hour,USCAN,cachejct,2136,05OCT2019:02:00:00,-0.8,1.1,-0.8,0.2,0,32.9,29.8,42.3,38.6,40.3,6.9,9.3,11.4,13.4,15.2,253,2.771648,1.207008,98,0.3,0.00108,-0.9,0.57,86,98,0.62,.,.
hour,USCAN,cachejct,2136,05OCT2019:03:00:00,-0.6,-0.6,-0.8,-0.8,0,32.9,29.5,42.5,38.6,40.3,6.6,9.1,11.3,13.4,15.2,310,3.039872,0.89408,97,0.34,0.001224,-1.2,0.56,94,100,0.58,.,.
hour,USCAN,cachejct,2136,05OCT2019:04:00:00,-0.6,-0.6,-1.3,-0.9,0,32.5,29.8,42.3,38.6,40.3,6.4,8.9,11.2,13.4,15.2,243,3.039872,0.849376,91,0.33,0.001188,-1.6,0.54,91,97,0.57,.,.
hour,USCAN,cachejct,2136,05OCT2019:05:00:00,-0.8,-0.6,-1.5,-0.9,0,32.6,29.7,42.1,38.6,40.3,6.1,8.7,11.1,13.4,15.2,311,2.2352,0.938784,96,0.26,0.000936,-1.8,0.54,91,97,0.57,.,.
hour,USCAN,cachejct,2136,05OCT2019:06:00:00,-1.4,-0.8,-1.4,-1.2,0,32.5,29.3,41.9,38.6,40.3,5.9,8.5,11,13.4,15.2,293,2.414016,0.804672,93,0.31,0.001116,-1.6,0.54,93,100,0.56,.,.
hour,USCAN,cachejct,2136,05OCT2019:07:00:00,-2.2,-1.1,-2.2,-1.6,0,32.7,29.5,42.7,38.6,40.4,5.7,8.3,11,13.4,15.2,296,2.369312,0.983488,94,11.9,0.04284,-2.4,0.51,92,100,0.54,.,.
hour,USCAN,cachejct,2136,05OCT2019:08:00:00,2,2,-2.2,-0.7,0,32.2,29.4,41.8,38.6,40.1,5.6,8.2,10.9,13.4,15.2,318,1.654048,0.625856,87,135,0.486,-1.5,0.55,87,96,0.58,.,.
hour,USCAN,cachejct,2136,05OCT2019:09:00:00,4.3,4.3,1.9,2.4,0,32.2,29.4,42.2,38.9,40.1,5.7,8.1,10.8,13.4,15.1,317,1.877568,0.402336,68,288.7,1.03932,0,0.61,68,88,0.73,.,.
hour,USCAN,cachejct,2136,05OCT2019:10:00:00,6.9,6.9,4.3,5.2,0,32.6,29.4,42.2,38.9,40.1,6.5,8.3,10.7,13.4,15.2,142,2.190496,0.804672,59,450.9,1.62324,-0.4,0.6,59,70,0.88,.,.
hour,USCAN,cachejct,2136,05OCT2019:11:00:00,8.9,8.9,6.9,7.3,0,32.5,29.3,42.2,38.6,40.1,7.1,8.8,10.6,13.4,15.1,133,2.861056,1.430528,54,559,2.0124,-0.4,0.59,54,59,1.02,.,.
hour,USCAN,cachejct,2136,05OCT2019:12:00:00,11,11,8.9,9.7,0,32.7,29.3,41.8,38.6,40.3,8.3,9.2,10.6,13.3,15.1,109,3.665728,1.296416,41,622.8,2.24208,-1.4,0.55,41,54,1.2,.,.
hour,USCAN,cachejct,2136,05OCT2019:13:00:00,12.1,12.1,10.8,11.3,0,32.9,29.4,41.8,38.2,40.1,9.3,9.8,10.5,13.3,15.1,250,6.884416,2.861056,39,646.7,2.32812,-1.3,0.56,38,45,1.34,.,.
hour,USCAN,cachejct,2136,05OCT2019:14:00:00,12.5,12.8,12.1,12.5,0,33.2,29.8,41.7,38.6,40.1,10.6,10.5,10.5,13.3,15.2,241,7.510272,4.828032,32,661.6,2.38176,-2,0.53,32,40,1.45,.,.
hour,USCAN,cachejct,2136,05OCT2019:15:00:00,12.3,12.5,12.1,12.2,0,33.2,29.9,41.8,38.2,40.1,11.3,11,10.6,13.3,15.1,237,7.465568,4.828032,34,417.9,1.50444,-3.7,0.47,31,34,1.42,.,.
hour,USCAN,cachejct,2136,05OCT2019:16:00:00,13,13,11.9,12.2,0,33.4,29.8,42.2,38.6,40.2,11.5,11.4,10.7,13.3,15.1,238,5.006848,3.218688,30,315.7,1.13652,-3.1,0.49,30,38,1.42,.,.
hour,USCAN,cachejct,2136,05OCT2019:17:00:00,11.9,13,11.6,12.1,0,33.3,29.8,42.3,38.6,40.1,11.5,11.6,10.7,13.1,15,238,5.051552,2.45872,35,180.2,0.64872,-3.2,0.48,30,37,1.41,.,.
hour,USCAN,cachejct,2136,05OCT2019:18:00:00,8.6,11.9,8.6,11.2,0,33.2,29.8,42.2,38.2,40.1,11.1,11.7,10.9,13.3,15.1,247,3.12928,1.832864,55,54.11,0.194796,-2.2,0.52,35,55,1.34,.,.
hour,USCAN,cachejct,2136,05OCT2019:19:00:00,8.3,8.6,7.2,8,0,33.4,29.8,41.8,38.6,40.3,10.5,11.5,11,13.1,15,253,2.950464,1.922272,46,0.98,0.003528,-1.3,0.56,46,55,1.07,.,.
hour,USCAN,cachejct,2136,05OCT2019:20:00:00,6.6,8.3,5.3,6.5,0,33,29.9,42.2,38.2,40.2,9.9,11.3,11.1,13.3,15,311,2.816352,1.475232,61,0,0,-0.8,0.58,46,68,0.97,.,.
hour,USCAN,cachejct,2136,05OCT2019:21:00:00,4.3,7,4.3,6.4,0,33,29.4,42.2,38.4,40.3,9.3,11,11.1,13.3,15,285,2.995168,1.832864,69,0.01,0.000036,-1.1,0.56,54,69,0.96,.,.
hour,USCAN,cachejct,2136,05OCT2019:22:00:00,4.7,5.7,4.3,5,0,33,29.5,42.2,38.7,40.1,8.9,10.8,11.2,13.1,15,284,2.90576,1.207008,67,0.02,0.000072,-1.1,0.56,58,71,0.88,.,.
hour,USCAN,cachejct,2136,05OCT2019:23:00:00,3.8,6,3.5,4.7,0,32.5,29.7,41.9,38.7,40.2,8.5,10.5,11.2,13.1,15,97,3.12928,0.715264,75,0.03,0.000108,-1,0.57,59,75,0.85,.,.
hour,USCAN,cachejct,2136,06OCT2019:00:00:00,1.7,3.8,1.5,2.1,0,32.5,29.7,42.1,38.7,40.2,8,10.2,11.2,13.1,15,186,2.101088,1.028192,85,0.1,0.00036,-0.6,0.58,75,87,0.71,.,.
hour,USCAN,cachejct,2136,06OCT2019:01:00:00,0.9,3,0.5,1.8,0,32.5,29.3,42.2,38.7,40.3,7.7,10,11.2,13.1,15,272,2.45872,0.625856,91,0.13,0.000468,-1.1,0.56,69,91,0.7,.,.
hour,USCAN,cachejct,2136,06OCT2019:02:00:00,-0.2,0.9,-0.2,0.4,0,32.2,29.2,42.2,38.3,40.2,7.3,9.7,11.1,13.1,15,316,2.45872,0.67056,94,0.18,0.000648,-0.8,0.58,91,94,0.63,.,.
hour,USCAN,cachejct,2136,06OCT2019:03:00:00,-0.7,-0.2,-0.8,-0.5,0,32.3,29,42.2,38.7,40.2,7,9.4,11.1,13.1,15,288,1.922272,0.759968,100,0.26,0.000936,-1.2,0.56,91,100,0.59,.,.
hour,USCAN,cachejct,2136,06OCT2019:04:00:00,-0.2,-0.2,-0.8,-0.6,0,32.4,29,42.2,38.3,40.1,6.7,9.2,11,13.1,15,298,2.995168,1.475232,89,0.25,0.0009,-1.4,0.55,89,100,0.58,.,.
hour,USCAN,cachejct,2136,06OCT2019:05:00:00,-2.2,-0.2,-2.2,-0.6,0,32.3,29.1,42.2,38.3,40.3,6.4,9,11,13.1,15,288,2.90576,0.536448,95,0.24,0.000864,-1.9,0.53,89,95,0.59,.,.
hour,USCAN,cachejct,2136,06OCT2019:06:00:00,-2.6,-1.8,-2.6,-2.1,0,32.2,28.7,41.8,38.7,40.2,6.1,8.7,10.9,13.1,15,213,1.832864,0.536448,94,0.27,0.000972,-2.9,0.49,93,96,0.52,.,.
hour,USCAN,cachejct,2136,06OCT2019:07:00:00,-1.7,-1,-3,-2.2,0,32.2,28.9,41.6,38.7,40.2,5.8,8.5,10.8,13,15,250,1.654048,0.983488,88,11.83,0.042588,-3,0.49,88,100,0.52,.,.
hour,USCAN,cachejct,2136,06OCT2019:08:00:00,1.7,1.7,-1.7,-0.7,0,32,28.9,42.2,38.9,40.2,5.6,8.3,10.8,13.1,15,313,2.01168,0.849376,88,139.5,0.5022,-1.9,0.53,88,93,0.58,.,.
hour,USCAN,cachejct,2136,06OCT2019:09:00:00,5.1,5.1,1.7,3.9,0,32.1,28.9,41.8,38.3,40.2,5.9,8.2,10.7,13,15,124,2.592832,0.625856,74,300.9,1.08324,0.4,0.63,73,88,0.81,.,.
hour,USCAN,cachejct,2136,06OCT2019:10:00:00,6.4,6.8,5.1,6,0,32.4,28.9,41.6,38.7,40.2,6.7,8.5,10.6,13,15,163,2.637536,1.028192,58,450.6,1.62216,-0.3,0.6,57,74,0.94,.,.
hour,USCAN,cachejct,2136,06OCT2019:11:00:00,9.6,9.6,6.4,8,0,32.1,28.8,41.6,38.8,40.1,7.3,8.9,10.5,13,15,308,2.414016,0.625856,48,562.7,2.02572,-1.2,0.56,48,58,1.07,.,.
hour,USCAN,cachejct,2136,06OCT2019:12:00:00,11.4,11.5,9.6,10.5,0,32.2,28.7,41.6,38.3,40.3,8.5,9.3,10.4,13,14.9,14,3.263392,0.759968,43,627.8,2.26008,-1.3,0.56,40,48,1.27,.,.
hour,USCAN,cachejct,2136,06OCT2019:13:00:00,13.4,13.4,11.4,12.2,0,32.7,29,41.9,38.3,40.3,9.4,9.9,10.4,13,14.9,292,3.486912,1.385824,30,639.9,2.30364,-2,0.53,30,43,1.42,.,.
hour,USCAN,cachejct,2136,06OCT2019:14:00:00,14.2,14.2,13.3,13.4,0,32.6,29.3,41.7,38.3,40.2,10.9,10.6,10.4,13,14.9,266,4.380992,2.01168,21,599.9,2.15964,-4.6,0.44,21,30,1.54,.,.
hour,USCAN,cachejct,2136,06OCT2019:15:00:00,14.1,15,14.1,14.6,0,33.3,29.2,41.4,38.9,40.3,12,11.2,10.4,12.8,14.9,288,3.621024,1.475232,24,509.9,1.83564,-6.3,0.38,21,24,1.66,.,.
hour,USCAN,cachejct,2136,06OCT2019:16:00:00,14.6,15.1,14.1,14.7,0,32.9,29.4,42,38.4,40.1,12.4,11.7,10.6,12.8,14.9,273,3.79984,1.56464,29,375.8,1.35288,-5.6,0.4,24,29,1.67,.,.
hour,USCAN,cachejct,2136,06OCT2019:17:00:00,14.3,14.6,14.2,14.4,0,32.9,29.3,41.8,38.8,40.3,12.2,11.9,10.7,13,14.9,274,3.844544,1.78816,29,215.9,0.77724,-3.6,0.47,27,30,1.64,.,.
hour,USCAN,cachejct,2136,06OCT2019:18:00:00,9.1,14.3,9.1,13.2,0,33.1,29.3,41.8,38.8,40.3,11.7,11.9,10.8,12.8,14.9,270,2.324608,0.938784,52,53.94,0.194184,-2.5,0.51,29,52,1.52,.,.
hour,USCAN,cachejct,2136,06OCT2019:19:00:00,5.7,9.6,5.7,8.3,0,32.7,29.5,41.8,38.8,40.3,10.9,11.8,10.9,12.8,14.9,272,1.832864,0.759968,62,0.92,0.003312,-1.4,0.55,40,66,1.1,.,.
hour,USCAN,cachejct,2136,06OCT2019:20:00:00,4.5,5.7,4.5,5.4,0,32.5,29.2,41.8,38.4,40.2,10.2,11.5,11,12.8,14.9,51,1.162304,0.268224,76,0.01,0.000036,-0.2,0.6,62,76,0.9,.,.
hour,USCAN,cachejct,2136,06OCT2019:21:00:00,3.7,4.7,3.4,4.2,0,32.5,29.1,41.7,38.9,40.3,9.5,11.2,11.1,13,14.9,297,2.816352,1.251712,72,0.02,0.000072,-0.2,0.6,68,76,0.82,.,.
hour,USCAN,cachejct,2136,06OCT2019:22:00:00,2.1,3.7,2.1,2.9,0,32.2,28.9,41.8,38.9,40.3,8.9,10.9,11.1,12.8,14.9,291,2.592832,1.162304,78,0.07,0.000252,-1,0.57,72,80,0.75,.,.
hour,USCAN,cachejct,2136,06OCT2019:23:00:00,-0.1,2.1,-0.1,1.5,0,32.3,29,42.2,38.9,40.3,8.5,10.6,11.2,12.8,14.9,306,2.414016,1.296416,89,0.13,0.000468,-1,0.57,78,89,0.68,.,.
hour,USCAN,cachejct,2136,07OCT2019:00:00:00,0.3,1.3,-0.1,0.5,0,32.2,29.2,42.1,38.4,40.2,8,10.2,11.2,12.8,14.9,302,1.654048,0.491744,84,0.18,0.000648,-1.1,0.56,80,94,0.63,.,.
hour,USCAN,cachejct,2136,07OCT2019:01:00:00,-0.5,0.8,-0.5,0.1,0,32,28.7,42.2,38.4,40.3,7.6,10,11.1,13,14.8,304,1.922272,0.89408,94,0.2,0.00072,-1.6,0.54,81,95,0.62,.,.
hour,USCAN,cachejct,2136,07OCT2019:02:00:00,-0.2,-0.1,-0.5,-0.3,0,31.9,28.8,41.7,38.9,40.3,7.2,9.7,11.1,12.8,14.8,295,1.922272,0.804672,88,0.25,0.0009,-1.7,0.54,88,94,0.6,.,.
hour,USCAN,cachejct,2136,07OCT2019:03:00:00,-1.7,-0.2,-1.8,-0.7,0,31.5,28.6,41.8,38.4,40.2,6.9,9.4,11,12.8,14.9,312,1.966976,0.804672,98,0.2,0.00072,-2,0.53,84,98,0.58,.,.
hour,USCAN,cachejct,2136,07OCT2019:04:00:00,-2.2,-1.1,-2.2,-1.5,0,31.6,28.7,41.6,38.5,40.2,6.6,9.1,11,12.8,14.8,289,1.519936,0.581152,93,0.24,0.000864,-2.4,0.51,91,98,0.55,.,.
hour,USCAN,cachejct,2136,07OCT2019:05:00:00,-2.1,-1.5,-2.4,-2,0,31.7,28.6,41.6,38.1,40.3,6.3,8.9,10.9,12.8,14.8,294,1.430528,0.625856,91,0.18,0.000648,-3.3,0.48,90,93,0.53,.,.
hour,USCAN,cachejct,2136,07OCT2019:06:00:00,-1.9,-1.9,-2.6,-2.2,0,31.3,28.7,41.8,38.1,40.2,6,8.6,10.8,12.8,14.8,291,1.966976,1.1176,91,0.2,0.00072,-3.4,0.48,91,94,0.52,.,.
hour,USCAN,cachejct,2136,07OCT2019:07:00:00,-1.9,-1.9,-2.7,-2.3,0,31.5,28.8,42,38.4,40.2,5.7,8.4,10.7,12.8,14.8,300,2.279904,1.072896,90,10.69,0.038484,-3.5,0.47,90,94,0.51,.,.
hour,USCAN,cachejct,2136,07OCT2019:08:00:00,2.1,2.1,-1.9,-0.7,0,31.5,28.4,42,38.5,40.2,5.6,8.2,10.7,12.8,14.8,311,1.832864,0.268224,80,139.4,0.50184,-2.2,0.52,80,90,0.58,.,.
hour,USCAN,cachejct,2136,07OCT2019:09:00:00,4,4,2.1,2.8,0,31.2,28.4,41.7,38.6,40.2,5.7,8.1,10.6,12.8,14.8,108,2.68224,0.625856,71,304.1,1.09476,-0.9,0.57,71,80,0.75,.,.
hour,USCAN,cachejct,2136,07OCT2019:10:00:00,7.4,7.4,4,5.5,0,31.6,28.4,42.2,38.5,40.2,6.5,8.3,10.4,12.8,14.8,142,2.324608,0.89408,52,452.4,1.62864,-0.3,0.6,52,72,0.9,.,.
hour,USCAN,cachejct,2136,07OCT2019:11:00:00,10,10,7.4,8.5,0,31.5,28.7,41.7,38.1,40.2,7.1,8.8,10.3,12.8,14.7,115,2.637536,1.072896,42,564.5,2.0322,-1.8,0.54,42,52,1.11,.,.
hour,USCAN,cachejct,2136,07OCT2019:12:00:00,13.1,13.1,10,11.5,0,31.9,28.4,41.7,38.5,40.2,8.4,9.1,10.3,12.8,14.8,128,2.771648,0.938784,39,626.9,2.25684,-1.4,0.55,39,42,1.36,.,.
hour,USCAN,cachejct,2136,07OCT2019:13:00:00,16.2,16.2,13.1,14.6,0,32.3,28.5,41.8,38.3,40.2,9.5,9.8,10.2,12.8,14.7,223,4.738624,1.966976,32,636.4,2.29104,-0.5,0.59,32,39,1.66,.,.
hour,USCAN,cachejct,2136,07OCT2019:14:00:00,16.7,16.7,15.9,16.1,0,32.1,28.8,41.8,38.5,40.2,11.1,10.4,10.3,12.8,14.7,149,3.397504,1.832864,31,595.7,2.14452,-0.5,0.59,31,33,1.83,.,.
hour,USCAN,cachejct,2136,07OCT2019:15:00:00,17.8,17.8,16.6,16.9,0,32.8,28.7,41.8,38.4,40.2,12.4,11,10.3,12.8,14.7,169,3.218688,1.072896,27,504.3,1.81548,-0.8,0.58,27,31,1.92,.,.